TimePDT,TemperatureF,Dew PointF,Humidity,Sea Level PressureIn,VisibilityMPH,Wind Direction,Wind SpeedMPH,Gust SpeedMPH,PrecipitationIn,Events,Conditions,WindDirDegrees,DateUTC
12:54 AM,55.0,51.1,86,29.89,10.0,WNW,4.6,-,N/A,,Overcast,300,2013-07-12 07:54:00
1:47 AM,55.4,51.8,88,29.91,10.0,WNW,8.1,-,N/A,,Overcast,300,2013-07-12 08:47:00
1:54 AM,55.9,51.1,84,29.89,10.0,WNW,6.9,-,N/A,,Overcast,290,2013-07-12 08:54:00
2:54 AM,55.0,50.0,83,29.89,10.0,WNW,6.9,-,N/A,,Overcast,290,2013-07-12 09:54:00
3:54 AM,55.0,50.0,83,29.89,10.0,WNW,5.8,-,N/A,,Overcast,290,2013-07-12 10:54:00
4:42 AM,55.4,50.0,82,29.92,10.0,NNW,18.4,67.9,N/A,,Squalls,330,2013-07-12 11:42:00
4:54 AM,55.0,50.0,83,29.89,10.0,North,-9999.0,-,N/A,,Overcast,0,2013-07-12 11:54:00
5:54 AM,55.9,51.1,84,29.90,10.0,SW,3.5,-,N/A,,Overcast,220,2013-07-12 12:54:00
6:54 AM,55.9,51.1,84,29.91,9.0,West,4.6,-,N/A,,Overcast,260,2013-07-12 13:54:00
7:54 AM,55.9,51.1,84,29.92,9.0,West,6.9,-,N/A,,Overcast,280,2013-07-12 14:54:00
8:54 AM,57.0,51.1,81,29.93,10.0,West,9.2,-,N/A,,Overcast,270,2013-07-12 15:54:00
9:54 AM,57.0,51.1,81,29.92,10.0,West,8.1,-,N/A,,Overcast,270,2013-07-12 16:54:00
10:33 AM,59.0,51.8,77,29.95,10.0,West,8.1,-,N/A,,Overcast,260,2013-07-12 17:33:00
10:54 AM,60.1,51.1,72,29.93,10.0,SW,4.6,-,N/A,,Overcast,230,2013-07-12 17:54:00
11:54 AM,64.0,52.0,65,29.93,10.0,SSW,8.1,-,N/A,,Mostly Cloudy,210,2013-07-12 18:54:00
12:01 PM,64.4,53.6,68,29.95,10.0,South,8.1,-,N/A,,Scattered Clouds,190,2013-07-12 19:01:00
12:54 PM,66.9,54.0,63,29.91,10.0,South,10.4,-,N/A,,Scattered Clouds,190,2013-07-12 19:54:00
1:54 PM,70.0,54.0,57,29.89,10.0,SSW,10.4,-,N/A,,Clear,210,2013-07-12 20:54:00
2:54 PM,72.0,55.0,55,29.88,10.0,South,13.8,-,N/A,,Clear,190,2013-07-12 21:54:00
3:54 PM,72.0,55.0,55,29.86,10.0,SSW,17.3,-,N/A,,Clear,200,2013-07-12 22:54:00
4:54 PM,72.0,54.0,53,29.85,10.0,South,16.1,-,N/A,,Clear,190,2013-07-12 23:54:00
5:54 PM,70.0,55.0,59,29.83,10.0,SSW,16.1,-,N/A,,Clear,200,2013-07-13 00:54:00
6:54 PM,66.0,54.0,65,29.83,10.0,South,16.1,-,N/A,,Clear,190,2013-07-13 01:54:00
7:54 PM,63.0,54.0,72,29.84,10.0,SSW,13.8,-,N/A,,Clear,200,2013-07-13 02:54:00
8:54 PM,59.0,54.0,83,29.85,10.0,South,9.2,-,N/A,,Clear,190,2013-07-13 03:54:00
9:54 PM,57.9,53.1,84,29.86,10.0,South,12.7,-,N/A,,Clear,180,2013-07-13 04:54:00
10:54 PM,57.0,52.0,83,29.87,10.0,South,8.1,-,N/A,,Clear,190,2013-07-13 05:54:00
11:54 PM,55.9,52.0,87,29.88,10.0,South,5.8,-,N/A,,Clear,180,2013-07-13 06:54:00